owner,sensor,date,latitude,longitude,vertical_datum,sea_water_practical_salinity,qcFlag 
COMPS,ioos:station:USF.COMPS:ANC:1,2011-07-01T00:54:00Z,28.1930,-82.7890,0.0,23.017,1111122 
COMPS,ioos:station:USF.COMPS:ANC:1,2011-07-01T01:54:00Z,28.1930,-82.7890,0.0,22.61,1111122 
COMPS,ioos:station:USF.COMPS:ANC:1,2011-07-01T02:54:00Z,28.1930,-82.7890,0.0,22.433,1111122 
COMPS,ioos:station:USF.COMPS:ANC:1,2011-07-01T03:54:00Z,28.1930,-82.7890,0.0,22.518,1111122 
COMPS,ioos:station:USF.COMPS:ANC:1,2011-07-01T04:54:00Z,28.1930,-82.7890,0.0,23.998,1111122 
COMPS,ioos:station:USF.COMPS:ANC:1,2011-07-01T05:54:00Z,28.1930,-82.7890,0.0,24.103,1111122 
COMPS,ioos:station:USF.COMPS:ANC:1,2011-07-01T06:54:00Z,28.1930,-82.7890,0.0,24.306,1111122 
COMPS,ioos:station:USF.COMPS:ANC:1,2011-07-01T07:54:00Z,28.1930,-82.7890,0.0,24.143,1111122 
COMPS,ioos:station:USF.COMPS:ANC:1,2011-07-01T08:54:00Z,28.1930,-82.7890,0.0,24.361,1111122 
COMPS,ioos:station:USF.COMPS:ANC:1,2011-07-01T09:54:00Z,28.1930,-82.7890,0.0,24.494,1111122 
COMPS,ioos:station:USF.COMPS:ANC:1,2011-07-01T10:54:00Z,28.1930,-82.7890,0.0,24.446,1111122 
COMPS,ioos:station:USF.COMPS:ANC:1,2011-07-01T11:54:00Z,28.1930,-82.7890,0.0,24.502,1111122 
COMPS,ioos:station:USF.COMPS:ANC:1,2011-07-01T12:54:00Z,28.1930,-82.7890,0.0,24.306,1111122 
COMPS,ioos:station:USF.COMPS:ANC:1,2011-07-01T13:54:00Z,28.1930,-82.7890,0.0,24.208,1111122 
COMPS,ioos:station:USF.COMPS:ANC:1,2011-07-01T14:54:00Z,28.1930,-82.7890,0.0,24.119,1111122 
COMPS,ioos:station:USF.COMPS:ANC:1,2011-07-01T15:54:00Z,28.1930,-82.7890,0.0,23.814,1111122 
COMPS,ioos:station:USF.COMPS:ANC:1,2011-07-01T16:54:00Z,28.1930,-82.7890,0.0,23.895,1111122 
COMPS,ioos:station:USF.COMPS:ANC:1,2011-07-01T17:54:00Z,28.1930,-82.7890,0.0,24.71,1111122 
COMPS,ioos:station:USF.COMPS:ANC:1,2011-07-01T18:54:00Z,28.1930,-82.7890,0.0,24.507,1111122 
COMPS,ioos:station:USF.COMPS:ANC:1,2011-07-01T19:54:00Z,28.1930,-82.7890,0.0,24.451,1111122 
COMPS,ioos:station:USF.COMPS:ANC:1,2011-07-01T20:54:00Z,28.1930,-82.7890,0.0,24.49,1111122 
COMPS,ioos:station:USF.COMPS:ANC:1,2011-07-01T21:54:00Z,28.1930,-82.7890,0.0,24.424,1111122 
COMPS,ioos:station:USF.COMPS:ANC:1,2011-07-01T22:54:00Z,28.1930,-82.7890,0.0,24.286,1111122 
COMPS,ioos:station:USF.COMPS:ANC:1,2011-07-01T23:54:00Z,28.1930,-82.7890,0.0,22.865,1111122 
COMPS,ioos:station:USF.COMPS:ANC:1,2011-07-02T00:54:00Z,28.1930,-82.7890,0.0,22.066,1111122 
COMPS,ioos:station:USF.COMPS:ANC:1,2011-07-02T01:54:00Z,28.1930,-82.7890,0.0,21.796,1111122 
COMPS,ioos:station:USF.COMPS:ANC:1,2011-07-02T02:54:00Z,28.1930,-82.7890,0.0,21.481,1111122 
COMPS,ioos:station:USF.COMPS:ANC:1,2011-07-02T03:54:00Z,28.1930,-82.7890,0.0,21.515,1111122 
COMPS,ioos:station:USF.COMPS:ANC:1,2011-07-02T04:54:00Z,28.1930,-82.7890,0.0,24.65,1111122 
COMPS,ioos:station:USF.COMPS:ANC:1,2011-07-02T05:54:00Z,28.1930,-82.7890,0.0,25.749,1111122 
COMPS,ioos:station:USF.COMPS:ANC:1,2011-07-02T06:54:00Z,28.1930,-82.7890,0.0,26.059,1111122 
COMPS,ioos:station:USF.COMPS:ANC:1,2011-07-02T07:54:00Z,28.1930,-82.7890,0.0,26.231,1111122 
COMPS,ioos:station:USF.COMPS:ANC:1,2011-07-02T08:54:00Z,28.1930,-82.7890,0.0,26.219,1111122 
COMPS,ioos:station:USF.COMPS:ANC:1,2011-07-02T09:54:00Z,28.1930,-82.7890,0.0,26.058,1111122 
COMPS,ioos:station:USF.COMPS:ANC:1,2011-07-02T10:54:00Z,28.1930,-82.7890,0.0,26.06,1111122 
COMPS,ioos:station:USF.COMPS:ANC:1,2011-07-02T11:54:00Z,28.1930,-82.7890,0.0,25.646,1111122 
COMPS,ioos:station:USF.COMPS:ANC:1,2011-07-02T12:54:00Z,28.1930,-82.7890,0.0,25.177,1111122 
COMPS,ioos:station:USF.COMPS:ANC:1,2011-07-02T13:54:00Z,28.1930,-82.7890,0.0,25.041,1111122 
COMPS,ioos:station:USF.COMPS:ANC:1,2011-07-02T14:54:00Z,28.1930,-82.7890,0.0,24.992,1111122 
COMPS,ioos:station:USF.COMPS:ANC:1,2011-07-02T15:54:00Z,28.1930,-82.7890,0.0,24.946,1111122 
COMPS,ioos:station:USF.COMPS:ANC:1,2011-07-02T16:54:00Z,28.1930,-82.7890,0.0,24.99,1111122 
COMPS,ioos:station:USF.COMPS:ANC:1,2011-07-02T17:54:00Z,28.1930,-82.7890,0.0,25.038,1111122 
COMPS,ioos:station:USF.COMPS:ANC:1,2011-07-02T18:54:00Z,28.1930,-82.7890,0.0,25.043,1111122 
COMPS,ioos:station:USF.COMPS:ANC:1,2011-07-02T19:54:00Z,28.1930,-82.7890,0.0,25.179,1111122 
COMPS,ioos:station:USF.COMPS:ANC:1,2011-07-02T20:54:00Z,28.1930,-82.7890,0.0,24.984,1111122 
COMPS,ioos:station:USF.COMPS:ANC:1,2011-07-02T21:54:00Z,28.1930,-82.7890,0.0,25.192,1111122 
COMPS,ioos:station:USF.COMPS:ANC:1,2011-07-02T22:54:00Z,28.1930,-82.7890,0.0,25.047,1111122 
COMPS,ioos:station:USF.COMPS:ANC:1,2011-07-02T23:54:00Z,28.1930,-82.7890,0.0,24.584,1111122 
COMPS,ioos:station:USF.COMPS:ANC:1,2011-07-03T00:54:00Z,28.1930,-82.7890,0.0,24.476,1111122 
COMPS,ioos:station:USF.COMPS:ANC:1,2011-07-03T01:54:00Z,28.1930,-82.7890,0.0,24.03,1111122 
COMPS,ioos:station:USF.COMPS:ANC:1,2011-07-03T02:54:00Z,28.1930,-82.7890,0.0,23.65,1111122 
COMPS,ioos:station:USF.COMPS:ANC:1,2011-07-03T03:54:00Z,28.1930,-82.7890,0.0,24.221,1111122 
COMPS,ioos:station:USF.COMPS:ANC:1,2011-07-03T04:54:00Z,28.1930,-82.7890,0.0,24.407,1111122 
COMPS,ioos:station:USF.COMPS:ANC:1,2011-07-03T05:54:00Z,28.1930,-82.7890,0.0,24.494,1111122 
COMPS,ioos:station:USF.COMPS:ANC:1,2011-07-03T06:54:00Z,28.1930,-82.7890,0.0,24.553,1111122 
COMPS,ioos:station:USF.COMPS:ANC:1,2011-07-03T07:54:00Z,28.1930,-82.7890,0.0,24.689,1111122 
COMPS,ioos:station:USF.COMPS:ANC:1,2011-07-03T08:54:00Z,28.1930,-82.7890,0.0,24.86,1111122 
COMPS,ioos:station:USF.COMPS:ANC:1,2011-07-03T09:54:00Z,28.1930,-82.7890,0.0,24.883,1111122 
COMPS,ioos:station:USF.COMPS:ANC:1,2011-07-03T10:54:00Z,28.1930,-82.7890,0.0,24.942,1111122 
COMPS,ioos:station:USF.COMPS:ANC:1,2011-07-03T11:54:00Z,28.1930,-82.7890,0.0,25.099,1111122 
COMPS,ioos:station:USF.COMPS:ANC:1,2011-07-03T12:54:00Z,28.1930,-82.7890,0.0,25.291,1111122 
COMPS,ioos:station:USF.COMPS:ANC:1,2011-07-03T13:54:00Z,28.1930,-82.7890,0.0,25.562,1111122 
COMPS,ioos:station:USF.COMPS:ANC:1,2011-07-03T14:54:00Z,28.1930,-82.7890,0.0,25.284,1111122 
COMPS,ioos:station:USF.COMPS:ANC:1,2011-07-03T15:54:00Z,28.1930,-82.7890,0.0,26.584,1111122 
COMPS,ioos:station:USF.COMPS:ANC:1,2011-07-03T16:54:00Z,28.1930,-82.7890,0.0,26.365,1111122 
COMPS,ioos:station:USF.COMPS:ANC:1,2011-07-03T17:54:00Z,28.1930,-82.7890,0.0,26.561,1111122 
COMPS,ioos:station:USF.COMPS:ANC:1,2011-07-03T18:54:00Z,28.1930,-82.7890,0.0,26.514,1111122 
COMPS,ioos:station:USF.COMPS:ANC:1,2011-07-03T19:54:00Z,28.1930,-82.7890,0.0,26.976,1111122 
COMPS,ioos:station:USF.COMPS:ANC:1,2011-07-03T20:54:00Z,28.1930,-82.7890,0.0,27.059,1111122 
COMPS,ioos:station:USF.COMPS:ANC:1,2011-07-03T21:54:00Z,28.1930,-82.7890,0.0,26.928,1111122 
COMPS,ioos:station:USF.COMPS:ANC:1,2011-07-03T22:54:00Z,28.1930,-82.7890,0.0,26.902,1111122 
COMPS,ioos:station:USF.COMPS:ANC:1,2011-07-03T23:54:00Z,28.1930,-82.7890,0.0,26.728,1111122 
COMPS,ioos:station:USF.COMPS:ANC:1,2011-07-04T00:54:00Z,28.1930,-82.7890,0.0,26.458,1111122 
COMPS,ioos:station:USF.COMPS:ANC:1,2011-07-04T01:54:00Z,28.1930,-82.7890,0.0,26.471,1111122 
COMPS,ioos:station:USF.COMPS:ANC:1,2011-07-04T02:54:00Z,28.1930,-82.7890,0.0,26.258,1111122 
COMPS,ioos:station:USF.COMPS:ANC:1,2011-07-04T03:54:00Z,28.1930,-82.7890,0.0,26.402,1111122 
COMPS,ioos:station:USF.COMPS:ANC:1,2011-07-04T04:54:00Z,28.1930,-82.7890,0.0,26.43,1111122 
COMPS,ioos:station:USF.COMPS:ANC:1,2011-07-04T05:54:00Z,28.1930,-82.7890,0.0,26.649,1111122 
COMPS,ioos:station:USF.COMPS:ANC:1,2011-07-04T06:54:00Z,28.1930,-82.7890,0.0,26.666,1111122 
COMPS,ioos:station:USF.COMPS:ANC:1,2011-07-04T07:54:00Z,28.1930,-82.7890,0.0,26.625,1111122 
COMPS,ioos:station:USF.COMPS:ANC:1,2011-07-04T08:54:00Z,28.1930,-82.7890,0.0,26.632,1111122 
COMPS,ioos:station:USF.COMPS:ANC:1,2011-07-04T09:54:00Z,28.1930,-82.7890,0.0,26.594,1111122 
COMPS,ioos:station:USF.COMPS:ANC:1,2011-07-04T10:54:00Z,28.1930,-82.7890,0.0,26.199,1111122 
COMPS,ioos:station:USF.COMPS:ANC:1,2011-07-04T11:54:00Z,28.1930,-82.7890,0.0,26.149,1111122 
COMPS,ioos:station:USF.COMPS:ANC:1,2011-07-04T12:54:00Z,28.1930,-82.7890,0.0,26.402,1111122 
COMPS,ioos:station:USF.COMPS:ANC:1,2011-07-04T13:54:00Z,28.1930,-82.7890,0.0,26.236,1111122 
COMPS,ioos:station:USF.COMPS:ANC:1,2011-07-04T14:54:00Z,28.1930,-82.7890,0.0,26.026,1111122 
COMPS,ioos:station:USF.COMPS:ANC:1,2011-07-04T15:54:00Z,28.1930,-82.7890,0.0,25.915,1111122 
COMPS,ioos:station:USF.COMPS:ANC:1,2011-07-04T16:54:00Z,28.1930,-82.7890,0.0,27.5,1111122 
COMPS,ioos:station:USF.COMPS:ANC:1,2011-07-04T17:54:00Z,28.1930,-82.7890,0.0,27.559,1111122 
COMPS,ioos:station:USF.COMPS:ANC:1,2011-07-04T18:54:00Z,28.1930,-82.7890,0.0,27.543,1111122 
COMPS,ioos:station:USF.COMPS:ANC:1,2011-07-04T19:54:00Z,28.1930,-82.7890,0.0,27.567,1111122 
COMPS,ioos:station:USF.COMPS:ANC:1,2011-07-04T20:54:00Z,28.1930,-82.7890,0.0,27.558,1111122 
COMPS,ioos:station:USF.COMPS:ANC:1,2011-07-04T21:54:00Z,28.1930,-82.7890,0.0,27.523,1111122 
COMPS,ioos:station:USF.COMPS:ANC:1,2011-07-04T22:54:00Z,28.1930,-82.7890,0.0,27.528,1111122 
COMPS,ioos:station:USF.COMPS:ANC:1,2011-07-04T23:54:00Z,28.1930,-82.7890,0.0,27.602,1111122 
COMPS,ioos:station:USF.COMPS:ANC:1,2011-07-05T00:54:00Z,28.1930,-82.7890,0.0,27.429,1111122 
COMPS,ioos:station:USF.COMPS:ANC:1,2011-07-05T01:54:00Z,28.1930,-82.7890,0.0,27.193,1111122 
COMPS,ioos:station:USF.COMPS:ANC:1,2011-07-05T02:54:00Z,28.1930,-82.7890,0.0,26.867,1111122 
COMPS,ioos:station:USF.COMPS:ANC:1,2011-07-05T03:54:00Z,28.1930,-82.7890,0.0,26.589,1111122 
COMPS,ioos:station:USF.COMPS:ANC:1,2011-07-05T04:54:00Z,28.1930,-82.7890,0.0,26.504,1111122 
COMPS,ioos:station:USF.COMPS:ANC:1,2011-07-05T05:54:00Z,28.1930,-82.7890,0.0,26.934,1111122 
COMPS,ioos:station:USF.COMPS:ANC:1,2011-07-05T06:54:00Z,28.1930,-82.7890,0.0,27.103,1111122 
COMPS,ioos:station:USF.COMPS:ANC:1,2011-07-05T07:54:00Z,28.1930,-82.7890,0.0,27.228,1111122 
COMPS,ioos:station:USF.COMPS:ANC:1,2011-07-05T08:54:00Z,28.1930,-82.7890,0.0,27.286,1111122 
COMPS,ioos:station:USF.COMPS:ANC:1,2011-07-05T09:54:00Z,28.1930,-82.7890,0.0,27.333,1111122 
COMPS,ioos:station:USF.COMPS:ANC:1,2011-07-05T10:54:00Z,28.1930,-82.7890,0.0,27.541,1111122 
COMPS,ioos:station:USF.COMPS:ANC:1,2011-07-05T11:54:00Z,28.1930,-82.7890,0.0,27.774,1111122 
COMPS,ioos:station:USF.COMPS:ANC:1,2011-07-05T12:54:00Z,28.1930,-82.7890,0.0,27.715,1111122 
COMPS,ioos:station:USF.COMPS:ANC:1,2011-07-05T13:54:00Z,28.1930,-82.7890,0.0,27.617,1111122 
COMPS,ioos:station:USF.COMPS:ANC:1,2011-07-05T14:54:00Z,28.1930,-82.7890,0.0,27.428,1111122 
COMPS,ioos:station:USF.COMPS:ANC:1,2011-07-05T15:54:00Z,28.1930,-82.7890,0.0,27.29,1111122 
COMPS,ioos:station:USF.COMPS:ANC:1,2011-07-05T16:54:00Z,28.1930,-82.7890,0.0,27.545,1111122 
COMPS,ioos:station:USF.COMPS:ANC:1,2011-07-05T17:54:00Z,28.1930,-82.7890,0.0,27.825,1111122 
COMPS,ioos:station:USF.COMPS:ANC:1,2011-07-05T18:54:00Z,28.1930,-82.7890,0.0,27.771,1111122 
COMPS,ioos:station:USF.COMPS:ANC:1,2011-07-05T19:54:00Z,28.1930,-82.7890,0.0,27.819,1111122 
COMPS,ioos:station:USF.COMPS:ANC:1,2011-07-05T20:54:00Z,28.1930,-82.7890,0.0,27.842,1111122 
COMPS,ioos:station:USF.COMPS:ANC:1,2011-07-05T21:54:00Z,28.1930,-82.7890,0.0,27.88,1111122 
COMPS,ioos:station:USF.COMPS:ANC:1,2011-07-05T22:54:00Z,28.1930,-82.7890,0.0,27.939,1111122 
COMPS,ioos:station:USF.COMPS:ANC:1,2011-07-05T23:54:00Z,28.1930,-82.7890,0.0,27.853,1111122 
COMPS,ioos:station:USF.COMPS:ANC:1,2011-07-06T00:54:00Z,28.1930,-82.7890,0.0,27.736,1111122 
COMPS,ioos:station:USF.COMPS:ANC:1,2011-07-06T01:54:00Z,28.1930,-82.7890,0.0,27.238,1111122 
COMPS,ioos:station:USF.COMPS:ANC:1,2011-07-06T02:54:00Z,28.1930,-82.7890,0.0,27.109,1111122 
COMPS,ioos:station:USF.COMPS:ANC:1,2011-07-06T03:54:00Z,28.1930,-82.7890,0.0,26.867,1111122 
COMPS,ioos:station:USF.COMPS:ANC:1,2011-07-06T04:54:00Z,28.1930,-82.7890,0.0,26.713,1111122 
COMPS,ioos:station:USF.COMPS:ANC:1,2011-07-06T05:54:00Z,28.1930,-82.7890,0.0,26.748,1111122 
COMPS,ioos:station:USF.COMPS:ANC:1,2011-07-06T06:54:00Z,28.1930,-82.7890,0.0,27.319,1111122 
COMPS,ioos:station:USF.COMPS:ANC:1,2011-07-06T07:54:00Z,28.1930,-82.7890,0.0,27.345,1111122 
COMPS,ioos:station:USF.COMPS:ANC:1,2011-07-06T08:54:00Z,28.1930,-82.7890,0.0,27.388,1111122 
COMPS,ioos:station:USF.COMPS:ANC:1,2011-07-06T09:54:00Z,28.1930,-82.7890,0.0,27.34,1111122 
COMPS,ioos:station:USF.COMPS:ANC:1,2011-07-06T10:54:00Z,28.1930,-82.7890,0.0,27.413,1111122 
COMPS,ioos:station:USF.COMPS:ANC:1,2011-07-06T11:54:00Z,28.1930,-82.7890,0.0,27.426,1111122 
COMPS,ioos:station:USF.COMPS:ANC:1,2011-07-06T12:54:00Z,28.1930,-82.7890,0.0,27.462,1111122 
COMPS,ioos:station:USF.COMPS:ANC:1,2011-07-06T13:54:00Z,28.1930,-82.7890,0.0,27.386,1111122 
COMPS,ioos:station:USF.COMPS:ANC:1,2011-07-06T14:54:00Z,28.1930,-82.7890,0.0,27.297,1111122 
COMPS,ioos:station:USF.COMPS:ANC:1,2011-07-06T15:54:00Z,28.1930,-82.7890,0.0,27.207,1111122 
COMPS,ioos:station:USF.COMPS:ANC:1,2011-07-06T16:54:00Z,28.1930,-82.7890,0.0,26.928,1111122 
COMPS,ioos:station:USF.COMPS:ANC:1,2011-07-06T17:54:00Z,28.1930,-82.7890,0.0,27.025,1111122 
COMPS,ioos:station:USF.COMPS:ANC:1,2011-07-06T18:54:00Z,28.1930,-82.7890,0.0,27.303,1111122 
COMPS,ioos:station:USF.COMPS:ANC:1,2011-07-06T19:54:00Z,28.1930,-82.7890,0.0,27.373,1111122 
COMPS,ioos:station:USF.COMPS:ANC:1,2011-07-06T20:54:00Z,28.1930,-82.7890,0.0,27.341,1111122 
COMPS,ioos:station:USF.COMPS:ANC:1,2011-07-06T21:54:00Z,28.1930,-82.7890,0.0,27.297,1111122 
COMPS,ioos:station:USF.COMPS:ANC:1,2011-07-06T22:54:00Z,28.1930,-82.7890,0.0,27.047,1111122 
COMPS,ioos:station:USF.COMPS:ANC:1,2011-07-06T23:54:00Z,28.1930,-82.7890,0.0,26.724,1111122 
COMPS,ioos:station:USF.COMPS:ANC:1,2011-07-07T00:54:00Z,28.1930,-82.7890,0.0,26.692,1111122 
COMPS,ioos:station:USF.COMPS:ANC:1,2011-07-07T01:54:00Z,28.1930,-82.7890,0.0,26.578,1111122 
COMPS,ioos:station:USF.COMPS:ANC:1,2011-07-07T02:54:00Z,28.1930,-82.7890,0.0,26.403,1111122 
COMPS,ioos:station:USF.COMPS:ANC:1,2011-07-07T03:54:00Z,28.1930,-82.7890,0.0,26.05,1111122 
COMPS,ioos:station:USF.COMPS:ANC:1,2011-07-07T04:54:00Z,28.1930,-82.7890,0.0,25.876,1111122 
COMPS,ioos:station:USF.COMPS:ANC:1,2011-07-07T05:54:00Z,28.1930,-82.7890,0.0,26.003,1111122 
COMPS,ioos:station:USF.COMPS:ANC:1,2011-07-07T06:54:00Z,28.1930,-82.7890,0.0,26.461,1111122 
COMPS,ioos:station:USF.COMPS:ANC:1,2011-07-07T07:54:00Z,28.1930,-82.7890,0.0,26.577,1111122 
COMPS,ioos:station:USF.COMPS:ANC:1,2011-07-07T08:54:00Z,28.1930,-82.7890,0.0,26.575,1111122 
COMPS,ioos:station:USF.COMPS:ANC:1,2011-07-07T10:54:00Z,28.1930,-82.7890,0.0,26.567,1111122 
COMPS,ioos:station:USF.COMPS:ANC:1,2011-07-07T11:54:00Z,28.1930,-82.7890,0.0,27.208,1111122 
COMPS,ioos:station:USF.COMPS:ANC:1,2011-07-07T12:54:00Z,28.1930,-82.7890,0.0,27.251,1111122 
COMPS,ioos:station:USF.COMPS:ANC:1,2011-07-07T13:54:00Z,28.1930,-82.7890,0.0,27.517,1111122 
COMPS,ioos:station:USF.COMPS:ANC:1,2011-07-07T14:54:00Z,28.1930,-82.7890,0.0,27.487,1111122 
COMPS,ioos:station:USF.COMPS:ANC:1,2011-07-07T15:54:00Z,28.1930,-82.7890,0.0,27.452,1111122 
COMPS,ioos:station:USF.COMPS:ANC:1,2011-07-07T16:54:00Z,28.1930,-82.7890,0.0,27.221,1111122 
COMPS,ioos:station:USF.COMPS:ANC:1,2011-07-07T17:54:00Z,28.1930,-82.7890,0.0,27.071,1111122 
COMPS,ioos:station:USF.COMPS:ANC:1,2011-07-07T18:54:00Z,28.1930,-82.7890,0.0,27.236,1111122 
COMPS,ioos:station:USF.COMPS:ANC:1,2011-07-07T19:54:00Z,28.1930,-82.7890,0.0,27.287,1111122 
COMPS,ioos:station:USF.COMPS:ANC:1,2011-07-07T20:54:00Z,28.1930,-82.7890,0.0,27.246,1111122 
COMPS,ioos:station:USF.COMPS:ANC:1,2011-07-07T21:54:00Z,28.1930,-82.7890,0.0,27.249,1111122 
COMPS,ioos:station:USF.COMPS:ANC:1,2011-07-07T22:54:00Z,28.1930,-82.7890,0.0,27.143,1111122 
COMPS,ioos:station:USF.COMPS:ANC:1,2011-07-07T23:54:00Z,28.1930,-82.7890,0.0,27.137,1111122 
COMPS,ioos:station:USF.COMPS:ANC:1,2011-07-08T00:54:00Z,28.1930,-82.7890,0.0,27.163,1111122 
COMPS,ioos:station:USF.COMPS:ANC:1,2011-07-08T01:54:00Z,28.1930,-82.7890,0.0,26.837,1111122 
COMPS,ioos:station:USF.COMPS:ANC:1,2011-07-08T02:54:00Z,28.1930,-82.7890,0.0,27.0,1111122 
COMPS,ioos:station:USF.COMPS:ANC:1,2011-07-08T03:54:00Z,28.1930,-82.7890,0.0,26.942,1111122 
COMPS,ioos:station:USF.COMPS:ANC:1,2011-07-08T04:54:00Z,28.1930,-82.7890,0.0,26.872,1111122 
COMPS,ioos:station:USF.COMPS:ANC:1,2011-07-08T05:54:00Z,28.1930,-82.7890,0.0,26.52,1111122 
COMPS,ioos:station:USF.COMPS:ANC:1,2011-07-08T06:54:00Z,28.1930,-82.7890,0.0,26.497,1111122 
COMPS,ioos:station:USF.COMPS:ANC:1,2011-07-08T07:54:00Z,28.1930,-82.7890,0.0,27.078,1111122 
COMPS,ioos:station:USF.COMPS:ANC:1,2011-07-08T08:54:00Z,28.1930,-82.7890,0.0,27.15,1111122 
COMPS,ioos:station:USF.COMPS:ANC:1,2011-07-08T09:54:00Z,28.1930,-82.7890,0.0,27.125,1111122 
COMPS,ioos:station:USF.COMPS:ANC:1,2011-07-08T10:54:00Z,28.1930,-82.7890,0.0,26.933,1111122 
COMPS,ioos:station:USF.COMPS:ANC:1,2011-07-08T11:54:00Z,28.1930,-82.7890,0.0,26.77,1111122 
COMPS,ioos:station:USF.COMPS:ANC:1,2011-07-08T12:54:00Z,28.1930,-82.7890,0.0,26.47,1111122 
COMPS,ioos:station:USF.COMPS:ANC:1,2011-07-08T13:54:00Z,28.1930,-82.7890,0.0,26.272,1111122 
COMPS,ioos:station:USF.COMPS:ANC:1,2011-07-08T14:54:00Z,28.1930,-82.7890,0.0,26.106,1111122 
COMPS,ioos:station:USF.COMPS:ANC:1,2011-07-08T15:54:00Z,28.1930,-82.7890,0.0,25.905,1111122 
COMPS,ioos:station:USF.COMPS:ANC:1,2011-07-08T16:54:00Z,28.1930,-82.7890,0.0,25.778,1111122 
COMPS,ioos:station:USF.COMPS:ANC:1,2011-07-08T17:54:00Z,28.1930,-82.7890,0.0,25.252,1111122 
COMPS,ioos:station:USF.COMPS:ANC:1,2011-07-08T18:54:00Z,28.1930,-82.7890,0.0,25.026,1111122 
COMPS,ioos:station:USF.COMPS:ANC:1,2011-07-08T19:54:00Z,28.1930,-82.7890,0.0,24.516,1111122 
COMPS,ioos:station:USF.COMPS:ANC:1,2011-07-08T20:54:00Z,28.1930,-82.7890,0.0,23.824,1111122 
COMPS,ioos:station:USF.COMPS:ANC:1,2011-07-08T21:54:00Z,28.1930,-82.7890,0.0,23.7,1111122 
COMPS,ioos:station:USF.COMPS:ANC:1,2011-07-08T22:54:00Z,28.1930,-82.7890,0.0,23.909,1111122 
COMPS,ioos:station:USF.COMPS:ANC:1,2011-07-08T23:54:00Z,28.1930,-82.7890,0.0,24.116,1111122 
COMPS,ioos:station:USF.COMPS:ANC:1,2011-07-09T00:54:00Z,28.1930,-82.7890,0.0,24.244,1111122 
COMPS,ioos:station:USF.COMPS:ANC:1,2011-07-09T01:54:00Z,28.1930,-82.7890,0.0,24.32,1111122 
COMPS,ioos:station:USF.COMPS:ANC:1,2011-07-09T02:54:00Z,28.1930,-82.7890,0.0,24.335,1111122 
COMPS,ioos:station:USF.COMPS:ANC:1,2011-07-09T03:54:00Z,28.1930,-82.7890,0.0,24.192,1111122 
COMPS,ioos:station:USF.COMPS:ANC:1,2011-07-09T04:54:00Z,28.1930,-82.7890,0.0,24.165,1111122 
COMPS,ioos:station:USF.COMPS:ANC:1,2011-07-09T05:54:00Z,28.1930,-82.7890,0.0,23.695,1111122 
COMPS,ioos:station:USF.COMPS:ANC:1,2011-07-09T06:54:00Z,28.1930,-82.7890,0.0,23.522,1111122 
COMPS,ioos:station:USF.COMPS:ANC:1,2011-07-09T07:54:00Z,28.1930,-82.7890,0.0,23.153,1111122 
COMPS,ioos:station:USF.COMPS:ANC:1,2011-07-09T08:54:00Z,28.1930,-82.7890,0.0,23.061,1111122 
COMPS,ioos:station:USF.COMPS:ANC:1,2011-07-09T09:54:00Z,28.1930,-82.7890,0.0,23.448,1111122 
COMPS,ioos:station:USF.COMPS:ANC:1,2011-07-09T10:54:00Z,28.1930,-82.7890,0.0,23.818,1111122 
COMPS,ioos:station:USF.COMPS:ANC:1,2011-07-09T11:54:00Z,28.1930,-82.7890,0.0,24.008,1111122 
COMPS,ioos:station:USF.COMPS:ANC:1,2011-07-09T12:54:00Z,28.1930,-82.7890,0.0,24.075,1111122 
COMPS,ioos:station:USF.COMPS:ANC:1,2011-07-09T13:54:00Z,28.1930,-82.7890,0.0,23.934,1111122 
COMPS,ioos:station:USF.COMPS:ANC:1,2011-07-09T14:54:00Z,28.1930,-82.7890,0.0,23.931,1111122 
COMPS,ioos:station:USF.COMPS:ANC:1,2011-07-09T15:54:00Z,28.1930,-82.7890,0.0,23.959,1111122 
COMPS,ioos:station:USF.COMPS:ANC:1,2011-07-09T16:54:00Z,28.1930,-82.7890,0.0,23.649,1111122 
COMPS,ioos:station:USF.COMPS:ANC:1,2011-07-09T17:54:00Z,28.1930,-82.7890,0.0,23.189,1111122 
COMPS,ioos:station:USF.COMPS:ANC:1,2011-07-09T18:54:00Z,28.1930,-82.7890,0.0,22.523,1111122 
COMPS,ioos:station:USF.COMPS:ANC:1,2011-07-09T19:54:00Z,28.1930,-82.7890,0.0,21.647,1111122 
COMPS,ioos:station:USF.COMPS:ANC:1,2011-07-09T20:54:00Z,28.1930,-82.7890,0.0,20.961,1111122 
COMPS,ioos:station:USF.COMPS:ANC:1,2011-07-09T21:54:00Z,28.1930,-82.7890,0.0,20.966,1111122 
COMPS,ioos:station:USF.COMPS:ANC:1,2011-07-09T22:54:00Z,28.1930,-82.7890,0.0,22.092,1111122 
COMPS,ioos:station:USF.COMPS:ANC:1,2011-07-09T23:54:00Z,28.1930,-82.7890,0.0,22.932,1111122 
COMPS,ioos:station:USF.COMPS:ANC:1,2011-07-10T00:54:00Z,28.1930,-82.7890,0.0,23.027,1111122 
COMPS,ioos:station:USF.COMPS:ANC:1,2011-07-10T01:54:00Z,28.1930,-82.7890,0.0,23.251,1111122 
COMPS,ioos:station:USF.COMPS:ANC:1,2011-07-10T02:54:00Z,28.1930,-82.7890,0.0,23.36,1111122 
COMPS,ioos:station:USF.COMPS:ANC:1,2011-07-10T03:54:00Z,28.1930,-82.7890,0.0,23.887,1111122 
COMPS,ioos:station:USF.COMPS:ANC:1,2011-07-10T04:54:00Z,28.1930,-82.7890,0.0,24.15,1111122 
COMPS,ioos:station:USF.COMPS:ANC:1,2011-07-10T05:54:00Z,28.1930,-82.7890,0.0,24.321,1111122 
COMPS,ioos:station:USF.COMPS:ANC:1,2011-07-10T06:54:00Z,28.1930,-82.7890,0.0,23.814,1111122 
COMPS,ioos:station:USF.COMPS:ANC:1,2011-07-10T07:54:00Z,28.1930,-82.7890,0.0,23.652,1111122 
COMPS,ioos:station:USF.COMPS:ANC:1,2011-07-10T08:54:00Z,28.1930,-82.7890,0.0,23.705,1111122 
COMPS,ioos:station:USF.COMPS:ANC:1,2011-07-10T09:54:00Z,28.1930,-82.7890,0.0,24.211,1111122 
COMPS,ioos:station:USF.COMPS:ANC:1,2011-07-10T10:54:00Z,28.1930,-82.7890,0.0,24.676,1111122 
COMPS,ioos:station:USF.COMPS:ANC:1,2011-07-10T11:54:00Z,28.1930,-82.7890,0.0,25.156,1111122 
COMPS,ioos:station:USF.COMPS:ANC:1,2011-07-10T12:54:00Z,28.1930,-82.7890,0.0,25.293,1111122 
COMPS,ioos:station:USF.COMPS:ANC:1,2011-07-10T13:54:00Z,28.1930,-82.7890,0.0,25.402,1111122 
COMPS,ioos:station:USF.COMPS:ANC:1,2011-07-10T14:54:00Z,28.1930,-82.7890,0.0,25.514,1111122 
COMPS,ioos:station:USF.COMPS:ANC:1,2011-07-10T15:54:00Z,28.1930,-82.7890,0.0,25.355,1111122 
COMPS,ioos:station:USF.COMPS:ANC:1,2011-07-10T16:54:00Z,28.1930,-82.7890,0.0,25.34,1111122 
COMPS,ioos:station:USF.COMPS:ANC:1,2011-07-10T17:54:00Z,28.1930,-82.7890,0.0,24.982,1111122 
COMPS,ioos:station:USF.COMPS:ANC:1,2011-07-10T18:54:00Z,28.1930,-82.7890,0.0,24.019,1111122 
COMPS,ioos:station:USF.COMPS:ANC:1,2011-07-10T19:54:00Z,28.1930,-82.7890,0.0,22.788,1111122 
COMPS,ioos:station:USF.COMPS:ANC:1,2011-07-10T20:54:00Z,28.1930,-82.7890,0.0,21.832,1111122 
COMPS,ioos:station:USF.COMPS:ANC:1,2011-07-10T21:54:00Z,28.1930,-82.7890,0.0,20.8,1111122 
COMPS,ioos:station:USF.COMPS:ANC:1,2011-07-10T22:54:00Z,28.1930,-82.7890,0.0,21.664,1111122 
COMPS,ioos:station:USF.COMPS:ANC:1,2011-07-10T23:54:00Z,28.1930,-82.7890,0.0,23.11,1111122 
COMPS,ioos:station:USF.COMPS:ANC:1,2011-07-11T00:54:00Z,28.1930,-82.7890,0.0,24.38,1111122 
COMPS,ioos:station:USF.COMPS:ANC:1,2011-07-11T01:54:00Z,28.1930,-82.7890,0.0,25.127,1111122 
COMPS,ioos:station:USF.COMPS:ANC:1,2011-07-11T02:54:00Z,28.1930,-82.7890,0.0,25.08,1111122 
COMPS,ioos:station:USF.COMPS:ANC:1,2011-07-11T03:54:00Z,28.1930,-82.7890,0.0,24.567,1111122 
COMPS,ioos:station:USF.COMPS:ANC:1,2011-07-11T04:54:00Z,28.1930,-82.7890,0.0,26.186,1111122 
COMPS,ioos:station:USF.COMPS:ANC:1,2011-07-11T05:54:00Z,28.1930,-82.7890,0.0,26.219,1111122 
COMPS,ioos:station:USF.COMPS:ANC:1,2011-07-11T06:54:00Z,28.1930,-82.7890,0.0,26.199,1111122 
COMPS,ioos:station:USF.COMPS:ANC:1,2011-07-11T07:54:00Z,28.1930,-82.7890,0.0,26.092,1111122 
COMPS,ioos:station:USF.COMPS:ANC:1,2011-07-11T08:54:00Z,28.1930,-82.7890,0.0,25.511,1111122 
COMPS,ioos:station:USF.COMPS:ANC:1,2011-07-11T09:54:00Z,28.1930,-82.7890,0.0,25.108,1111122 
COMPS,ioos:station:USF.COMPS:ANC:1,2011-07-11T10:54:00Z,28.1930,-82.7890,0.0,25.712,1111122 
COMPS,ioos:station:USF.COMPS:ANC:1,2011-07-11T11:54:00Z,28.1930,-82.7890,0.0,25.968,1111122 
COMPS,ioos:station:USF.COMPS:ANC:1,2011-07-11T12:54:00Z,28.1930,-82.7890,0.0,25.917,1111122 
COMPS,ioos:station:USF.COMPS:ANC:1,2011-07-11T13:54:00Z,28.1930,-82.7890,0.0,26.079,1111122 
COMPS,ioos:station:USF.COMPS:ANC:1,2011-07-11T14:54:00Z,28.1930,-82.7890,0.0,26.057,1111122 
COMPS,ioos:station:USF.COMPS:ANC:1,2011-07-11T15:54:00Z,28.1930,-82.7890,0.0,25.969,1111122 
COMPS,ioos:station:USF.COMPS:ANC:1,2011-07-11T16:54:00Z,28.1930,-82.7890,0.0,26.043,1111122 
COMPS,ioos:station:USF.COMPS:ANC:1,2011-07-11T17:54:00Z,28.1930,-82.7890,0.0,26.008,1111122 